Location: Unspecified
(0.0000°N, 0.0000°E)
Time: 01:12:21
(UTC+00:00)

deb Delta 104 - Pass Details

Date: 10 March 2026
Orbit: 1339 x 1585 km, 100.8° (Epoch: 14 April)

Event Time Altitude Azimuth Distance (km) Brightness Sun altitude
Exits shadow 21:45:25 16° 209° (SSW) 3,332 ? -53.6°
Drops below altitude 10° 21:46:49 10° 207° (SSW) 3,786 ? -54.0°
Sets 21:49:46 0° 203° (SSW) 4,777 ? -54.7°
